Location: *
(0.1100°S, 174.5000°W)
Time: 00:38:34
(UTC+00:00)

Daily predictions for brighter satellites

Satellite Brightness Start Highest point End
(mag) Time Altitude Azimuth Time Altitude Azimuth Time Altitude Azimuth
Meteor 1-21 Rocket 4.5 06:02:45 10° S 06:08:21 76° W 06:13:51 10° N
CZ-2C R/B 3.1 06:03:38 10° NNE 06:08:57 44° ESE 06:14:15 10° S
CZ-3A R/B 4.4 06:03:21 10° SSW 06:08:59 26° SSE 06:17:44 10° E
Ariane H10+ 3.5 05:54:55 10° W 06:10:35 53° N 06:15:30 10° ENE
Cosmos 1703 3.2 06:08:57 10° S 06:12:53 83° E 06:16:46 10° N
CZ-2C R/B 3.2 06:09:46 10° SSE 06:14:28 48° ENE 06:19:23 10° N
Cosmos 1346 Rocket 4.2 06:14:05 10° SE 06:16:56 19° E 06:19:47 10° NE
Cosmos 1340 2.6 06:15:07 10° S 06:18:52 74° E 06:22:35 10° N
Cosmos 2278 Rocket 2.5 06:13:38 10° S 06:19:04 49° ESE 06:24:31 10° NNE
Cosmos 1092 Rocket 4.0 06:13:02 10° S 06:19:21 85° E 06:25:34 10° N
Cosmos 1626 Rocket 4.2 06:15:30 10° SSW 06:19:46 59° W 06:24:01 10° N
H-2A R/B 2.8 06:16:05 10° SE 06:20:10 27° ENE 06:24:14 10° NNE
Cosmos 2058 Rocket 3.2 06:15:53 10° N 06:20:17 56° E 06:24:42 10° SSE
Cosmos 1939 Rocket 3.7 06:16:44 10° S 06:20:48 58° W 06:24:51 10° NNW
Delta 128 3.5 06:19:25 10° WNW 06:23:52 85° NNE 06:28:32 10° ESE
GEOS 3 Rocket 3.6 06:25:41 10° NE 06:30:48 65° ESE 06:35:51 10° SSW
ATLAS 5 CENTAUR R/B 1.1 06:29:27 10° WNW 06:30:56 20° NNW 06:32:09 12° NNE
ARIANE 5 R/B 2.1 06:22:14 10° W 06:31:55 89° S 06:34:07 14° E
CZ-4 R/B 1.6 06:28:04 10° SSE 06:32:10 53° ENE 06:36:13 10° N
Delta 2 Rocket 4.5 06:30:31 10° SSW 06:33:17 22° SE 06:35:32 13° E
Cosmos 2098 Rocket 3.9 06:29:16 10° S 06:34:45 63° E 06:41:24 10° NNE
Cosmos 1455 2.6 06:31:12 10° NNE 06:34:48 40° E 06:38:26 10° SSE
Cosmos 1328 4.4 06:33:12 10° SSW 06:37:11 62° W 06:41:09 10° N
Okean-O 2.7 06:33:08 10° SSE 06:37:26 51° ENE 06:41:43 10° N
ATLAS 3B R/B 2.8 06:32:51 10° NNW 06:40:09 81° ENE 06:47:39 10° SSE
Cosmos 1758 Rocket 3.4 06:36:57 10° S 06:41:18 79° E 06:45:40 10° N
Skynet4D Del rocket 3.8 06:35:55 10° WSW 06:42:04 74° NNW 06:46:17 18° NE
ARIANE 5 R/B 4.0 06:38:19 10° W 06:42:59 87° S 07:17:20 13° E
ARIANE 5 R/B 4.0 06:38:19 10° W 06:42:59 87° S 07:17:18 14° E
Delta 2 Rocket 4.3 06:38:08 10° WNW 06:44:56 79° NNE 06:53:14 10° ESE
Cosmos 773 Rocket 4.5 06:50:26 10° NNW 06:55:28 61° WSW 07:00:33 10° S
Meteor 2-10 Rocket 4.4 06:53:41 10° NNW 06:58:42 51° W 07:03:36 10° S
YAOGAN 1 2.8 06:58:01 10° S 07:02:19 70° WSW 07:06:36 10° NNW
Cosmos 1125 Rocket 4.3 06:59:47 10° SSE 07:04:14 29° ESE 07:04:44 28° E
Meteor 2-1 Rocket 4.2 06:58:58 10° N 07:04:27 85° W 07:10:00 10° S
Cosmos 2266 Rocket 4.5 07:00:22 10° SSE 07:06:16 39° E 07:08:54 27° NE
Cosmos 1655 Rocket 4.1 07:00:17 10° SSE 07:06:23 51° E 07:10:41 19° NNE
HETE-2 4.5 07:04:01 10° W 07:08:15 83° N 07:09:27 46° E
SJ-11-01 4.5 07:06:00 10° S 07:10:44 72° WSW 07:15:25 10° NNW
ARIANE 5 R/B 3.9 07:08:02 10° W 07:13:14 44° S 07:14:39 28° SE
Helios 1A Rocket 3.3 07:09:43 10° S 07:13:47 65° WSW 07:17:51 10° NNW
ARGOS 3.0 07:08:56 10° SSE 07:14:17 80° ENE 07:19:38 10° N
Aureole 3 Rocket 3.3 07:15:51 48° ENE 07:16:29 53° E 07:21:47 10° SSE
HJ-1C 4.0 07:14:33 10° S 07:17:46 55° W 07:20:39 12° NNW
Palapa 6 Rocket 4.2 07:16:19 10° NW 07:19:52 28° N 07:19:52 28° N
Cosmos 1241 Rocket 4.4 07:14:49 10° SSW 07:21:05 86° WNW 07:24:46 27° NNE
Iridium 4 Rocket 3.8 07:16:23 10° N 07:21:22 59° W 07:25:56 10° SSW
CSL-04 Debris 4.1 07:17:39 10° S 07:23:06 84° WSW 07:28:29 10° NNW
ASTRO E2 4.0 07:28:39 10° W 07:32:05 31° NW 07:32:05 31° NW
Cosmos 1892 3.5 07:29:27 10° S 07:32:02 42° S 07:32:02 42° S
ATLAS 3B CENTAUR R/B 2.5 07:30:32 10° W 07:33:35 28° WNW 07:33:35 28° WNW
Cosmos 1553 Rocket 4.1 07:38:47 53° ESE 07:38:47 53° ESE 07:44:20 10° SSE
GPS 2-15 Rocket1 3.5 07:34:13 10° W 07:38:46 55° SSW 07:39:12 52° S
In-Cosmos 22 Rocket 4.3 07:33:13 10° S 07:38:59 77° W 07:41:36 34° N
OAO 3 Rocket 3.2 07:35:16 10° SW 07:39:59 75° S 07:39:59 75° S
Ariane 44P Rocket 3.5 07:37:29 10° W 07:41:00 67° N 07:42:20 54° ENE
Cosmos 1812 Rocket 4.4 07:40:29 26° NNW 07:42:35 48° W 07:46:46 10° SSW
DASH 3.9 07:23:56 10° WNW 07:53:55 68° NNE 07:54:32 64° NE
Cosmos 2369 Rocket 4.4 07:54:10 10° SSE 07:54:53 13° SSE 07:54:53 13° SSE
H-2A R/B (2) 4.2 07:58:37 10° SW 08:00:02 12° S 08:01:28 11° S
CZ-3A R/B 3.8 08:01:57 10° SW 08:11:07 72° SSE 08:14:00 58° E
ARIANE 44LP R/B 4.5 07:16:27 10° W 08:14:16 69° SSW 08:15:49 57° SE
Cosmos 1943 Rocket 3.5 08:09:27 10° SSW 08:12:12 31° S 08:12:12 31° S
Ariane 3 Deb 3.9 08:05:46 10° W 08:16:29 54° WSW 08:16:29 54° WSW
Milstar 3 Cent rocket 4.4 07:56:56 10° NW 08:20:30 59° NNE 08:21:39 57° NE
ARIANE 5 R/B 3.2 08:17:52 10° WSW 08:48:32 - E 08:20:49 46° SSW
ARIANE 5 R/B 4.2 08:12:08 10° W 08:47:42 67° W 08:47:42 67° W
